DELTA 1 DEB, 10759

Orbit data source: Space-Track

DELTA 1 DEB, 10759 is space debris in SSO originally from a launch on Thu, 29 Jul 1976 UTC launched from the Air Force Western Test Range (AFWTR). Debris objects in space refer to the collection of defunct objects orbiting the Earth. Examples of debris include non-operational satellites, rocket bodies, and fragments generated from explosions, collisions, or faulty payload assembly.

Loading next visibility...
Identifier
10759, 1976-077BG
Orbit
SSO
Country
Flag of USUS
Related business
Manufacturer
Unknown
Mission
Spacecraft
Bus & Motor
Unknown
Mass
Unknown
Launch date (UTC)
1976-07-29 (49 years ago)
Launch vehicle
Unknown
Launch site
Air Force Western Test Range (AFWTR)
Object type
Payload
Rocket body
Debris
Shape & HBR
Unknown shape, 0.2 m
Radar Cross Section
Small (<0.1 m²)

Expand to show TLE details & history
Last TLE update: 13 hours ago

TLE from 13 hours ago
0 DELTA 1 DEB
1 10759U 76077BG  25351.60800616  .00000102  00000-0  10768-2 0  9999
2 10759 102.4839 242.9552 0080959 347.7997  79.0761 12.42107961229058
Epoch: 2025-12-17T14:35Z
TLE epoch observation values (Epoch: 2025-12-17T14:35:31.732Z)
Latitude
64.76175°
Longitude
-90.26717°
Altitude
1,497.061 km
Speed
7.127 km/s
True Right ascension
14h 20m 21s
True Declination
64° 38' 29"
Sunlit
Object was in daylight at epoch
Visualization orbit readout
Latitude
Unknown
Longitude
Unknown
Altitude
Unknown
Speed
Unknown
Apparent Right ascension
Unknown
Apparent Declination
Unknown
Sunlit
N/A
Visualization observer readout
Local Sidereal Time
01:56:01
Azimuth
Unknown
Elevation
Unknown
Doppler factor
Unknown
Orbital elements
Apogee altitude
1,559.023 km
Perigee altitude
1,431.539 km
Semi-major axis
7,873.418 km
Eccentricity
0.0081
Inclination
102.4839°
RAAN
242.9552°
Arg. of periapsis
347.7997°
True anomaly
79.98872°
Mean anomaly
79.0761°
Eccentric anomaly
79.53224°
Mean motion
3.10669 °/min
Orbital period
115.88 mins
BSTAR
0.0010768
Loading maneuver chart data...
Computing Atmospheric mass density...
Loading historical data...
Loading historical data...
Loading historical data...
Loading historical data...
Loading historical data...
Loading historical data...
Loading historical data...

Documentation

Showing up to 5 results
|